32.0°F
Current conditions from King Hill
Updated every 5 minutes
 
  Monday October 20, 2014

Station Historical Data
Daily Summary for May 3, 2012 Units:  English    Metric   Both
« Previous Day
Next Day »
Daily Weekly Monthly Yearly Custom
  High: Low: Average:
Temperature: 63.8 °F 48.1 °F 54.6 °F
Dew Point: 52.3 °F 44.7 °F 48.4 °F
Humidity: 92% 66% 80%
Wind Speed: 9.0mph 1.0mph 3.6mph
Wind Gust: 18.0mph - -
Wind- - SSW
Pressure: 30.07 in 29.92 in -
Precipitation: 0.04 in    
Historical Graphs
 
 
Tabular Data for May 3, 2012
Time Temperature Dew Point Pressure Wind Wind Speed Wind Gust Humidity Daily Rainfall
00:04 50.5 °F 45.5 °F 30.01 in South 4.0 mph 9.0 mph 83% 0.00 in
00:09 50.4 °F 45.4 °F 30.01 in South 2.0 mph 9.0 mph 83% 0.00 in
00:14 50.3 °F 45.7 °F 30.01 in SSW 3.0 mph 8.0 mph 84% 0.00 in
00:19 50.1 °F 45.5 °F 30.00 in South 2.0 mph 8.0 mph 84% 0.00 in
00:24 50.0 °F 45.7 °F 30.00 in South 3.0 mph 13.0 mph 85% 0.01 in
00:29 49.8 °F 45.5 °F 30.00 in SSW 5.0 mph 13.0 mph 85% 0.01 in
00:34 49.7 °F 45.7 °F 30.00 in SSW 4.0 mph 12.0 mph 86% 0.02 in
00:39 49.6 °F 45.6 °F 30.00 in South 4.0 mph 12.0 mph 86% 0.02 in
00:44 49.5 °F 45.8 °F 30.00 in South 4.0 mph 12.0 mph 87% 0.02 in
00:49 49.4 °F 45.7 °F 30.00 in SSW 6.0 mph 12.0 mph 87% 0.02 in
00:54 49.4 °F 46.0 °F 30.00 in South 6.0 mph 12.0 mph 88% 0.02 in
00:59 49.3 °F 45.9 °F 30.00 in SSW 5.0 mph 10.0 mph 88% 0.02 in
01:04 49.2 °F 45.8 °F 30.00 in South 5.0 mph 12.0 mph 88% 0.02 in
01:09 49.1 °F 45.7 °F 30.00 in SSW 4.0 mph 12.0 mph 88% 0.02 in
01:14 49.0 °F 45.6 °F 30.00 in SSW 5.0 mph 10.0 mph 88% 0.02 in
01:19 48.9 °F 45.5 °F 30.00 in South 4.0 mph 11.0 mph 88% 0.02 in
01:24 48.7 °F 45.3 °F 30.00 in South 6.0 mph 11.0 mph 88% 0.03 in
01:29 48.7 °F 45.3 °F 30.00 in South 4.0 mph 10.0 mph 88% 0.03 in
01:34 48.5 °F 45.1 °F 30.00 in South 4.0 mph 10.0 mph 88% 0.03 in
01:39 48.5 °F 45.1 °F 30.00 in SSW 2.0 mph 12.0 mph 88% 0.03 in
01:44 48.5 °F 45.1 °F 30.00 in South 2.0 mph 12.0 mph 88% 0.03 in
01:49 48.5 °F 45.1 °F 30.00 in South 4.0 mph 9.0 mph 88% 0.03 in
01:54 48.5 °F 45.1 °F 30.00 in SSW 3.0 mph 10.0 mph 88% 0.03 in
01:59 48.5 °F 45.1 °F 30.00 in South 3.0 mph 10.0 mph 88% 0.03 in
02:04 48.5 °F 45.1 °F 30.00 in South 4.0 mph 7.0 mph 88% 0.03 in
02:09 48.5 °F 45.1 °F 30.00 in SSW 3.0 mph 7.0 mph 88% 0.03 in
02:14 48.5 °F 45.1 °F 30.00 in SSW 3.0 mph 7.0 mph 88% 0.03 in
02:19 48.5 °F 45.1 °F 30.00 in SSW 2.0 mph 7.0 mph 88% 0.03 in
02:24 48.5 °F 45.1 °F 30.00 in South 1.0 mph 5.0 mph 88% 0.03 in
02:29 48.4 °F 45.0 °F 29.99 in SSW 2.0 mph 6.0 mph 88% 0.03 in
02:34 48.4 °F 45.0 °F 29.99 in SSW 2.0 mph 9.0 mph 88% 0.04 in
02:39 48.3 °F 44.9 °F 30.00 in SSW 2.0 mph 9.0 mph 88% 0.04 in
02:44 48.2 °F 44.8 °F 30.00 in SSW 5.0 mph 11.0 mph 88% 0.04 in
02:49 48.2 °F 46.0 °F 30.00 in SSW 1.0 mph 11.0 mph 92% 0.04 in
02:54 48.1 °F 44.7 °F 30.00 in SSW 3.0 mph 9.0 mph 88% 0.04 in
02:59 48.1 °F 44.7 °F 30.00 in SSW 3.0 mph 8.0 mph 88% 0.04 in
03:04 48.1 °F 44.7 °F 30.00 in South 3.0 mph 8.0 mph 88% 0.04 in
03:09 48.1 °F 44.7 °F 30.00 in Calm   7.0 mph 88% 0.04 in
03:14 48.1 °F 44.7 °F 30.00 in SSW 5.0 mph 10.0 mph 88% 0.04 in
03:19 48.1 °F 44.7 °F 30.00 in SSW 2.0 mph 10.0 mph 88% 0.04 in
03:24 48.2 °F 44.8 °F 30.00 in South 1.0 mph 9.0 mph 88% 0.04 in
03:29 48.1 °F 44.7 °F 30.01 in SW 3.0 mph 7.0 mph 88% 0.04 in
03:49 48.1 °F 44.7 °F 30.00 in SSW 5.0 mph 10.0 mph 88% 0.04 in
03:54 48.1 °F 44.7 °F 30.00 in South 4.0 mph 10.0 mph 88% 0.04 in
03:59 48.1 °F 44.7 °F 30.00 in South 2.0 mph 9.0 mph 88% 0.04 in
04:04 48.2 °F 44.8 °F 30.00 in SSW 3.0 mph 8.0 mph 88% 0.04 in
04:10 48.2 °F 44.8 °F 30.00 in Calm   7.0 mph 88% 0.04 in
04:24 48.4 °F 45.0 °F 30.00 in SSW 2.0 mph 7.0 mph 88% 0.04 in
04:34 48.5 °F 45.1 °F 30.01 in Calm   6.0 mph 88% 0.04 in
04:59 48.6 °F 45.2 °F 30.01 in SSW 6.0 mph 12.0 mph 88% 0.04 in
05:04 48.7 °F 45.3 °F 30.01 in South 5.0 mph 12.0 mph 88% 0.04 in
05:19 48.8 °F 45.4 °F 30.01 in SSW 1.0 mph 10.0 mph 88% 0.04 in
05:24 48.8 °F 45.1 °F 30.01 in SSW 4.0 mph 12.0 mph 87% 0.04 in
05:29 48.9 °F 45.2 °F 30.01 in SSW 4.0 mph 12.0 mph 87% 0.04 in
05:34 49.0 °F 45.3 °F 30.01 in South 5.0 mph 12.0 mph 87% 0.04 in
05:39 49.0 °F 45.3 °F 30.01 in SSW 4.0 mph 11.0 mph 87% 0.04 in
05:49 49.1 °F 45.4 °F 30.01 in SSW 3.0 mph 10.0 mph 87% 0.04 in
05:54 49.2 °F 45.2 °F 30.01 in SSW 5.0 mph 15.0 mph 86% 0.04 in
06:00 49.2 °F 45.2 °F 30.01 in SSW 5.0 mph 15.0 mph 86% 0.04 in
06:09 49.3 °F 45.3 °F 30.01 in SSW 5.0 mph 12.0 mph 86% 0.04 in
06:14 49.4 °F 45.4 °F 30.01 in SSW 5.0 mph 12.0 mph 86% 0.04 in
06:19 49.4 °F 45.4 °F 30.01 in SSW 4.0 mph 9.0 mph 86% 0.04 in
06:24 49.4 °F 45.4 °F 30.01 in South 3.0 mph 10.0 mph 86% 0.04 in
06:29 49.5 °F 45.5 °F 30.02 in SSW 2.0 mph 10.0 mph 86% 0.04 in
06:34 49.5 °F 45.2 °F 30.02 in SSW 3.0 mph 8.0 mph 85% 0.04 in
06:39 49.5 °F 45.2 °F 30.02 in SSW 5.0 mph 8.0 mph 85% 0.04 in
06:44 49.5 °F 45.2 °F 30.02 in SSW 6.0 mph 8.0 mph 85% 0.04 in
06:49 49.6 °F 45.3 °F 30.02 in SSW 2.0 mph 8.0 mph 85% 0.04 in
06:54 49.6 °F 45.3 °F 30.02 in SSW 3.0 mph 8.0 mph 85% 0.04 in
06:59 49.6 °F 45.3 °F 30.02 in South 2.0 mph 8.0 mph 85% 0.04 in
07:04 49.7 °F 45.4 °F 30.02 in South 4.0 mph 8.0 mph 85% 0.04 in
07:09 49.8 °F 45.5 °F 30.02 in SSW 3.0 mph 9.0 mph 85% 0.04 in
07:14 49.8 °F 45.2 °F 30.02 in SSW 5.0 mph 14.0 mph 84% 0.04 in
07:19 49.9 °F 45.3 °F 30.03 in South 3.0 mph 14.0 mph 84% 0.04 in
07:24 49.9 °F 45.3 °F 30.03 in SW 2.0 mph 8.0 mph 84% 0.04 in
07:29 49.9 °F 45.3 °F 30.03 in SSW 1.0 mph 9.0 mph 84% 0.04 in
07:34 49.9 °F 45.3 °F 30.03 in SSW 4.0 mph 9.0 mph 84% 0.04 in
07:39 49.9 °F 45.3 °F 30.03 in South 3.0 mph 8.0 mph 84% 0.04 in
07:49 50.1 °F 45.5 °F 30.04 in SSW 3.0 mph 7.0 mph 84% 0.04 in
07:54 50.1 °F 45.5 °F 30.04 in South 3.0 mph 7.0 mph 84% 0.04 in
07:59 50.2 °F 45.2 °F 30.03 in SSW 3.0 mph 9.0 mph 83% 0.04 in
08:04 50.2 °F 45.2 °F 30.03 in SSW 3.0 mph 9.0 mph 83% 0.04 in
08:09 50.3 °F 45.3 °F 30.04 in Calm   7.0 mph 83% 0.04 in
08:14 50.3 °F 45.3 °F 30.04 in South 2.0 mph 11.0 mph 83% 0.04 in
08:19 50.3 °F 45.3 °F 30.04 in SSW 6.0 mph 11.0 mph 83% 0.04 in
08:24 50.3 °F 45.3 °F 30.04 in South 3.0 mph 10.0 mph 83% 0.04 in
08:34 50.5 °F 45.5 °F 30.05 in South 2.0 mph 10.0 mph 83% 0.04 in
08:39 50.5 °F 45.5 °F 30.05 in SSW 3.0 mph 8.0 mph 83% 0.04 in
08:44 50.6 °F 45.6 °F 30.06 in SSW 2.0 mph 7.0 mph 83% 0.04 in
08:49 50.6 °F 45.6 °F 30.06 in SSW 3.0 mph 9.0 mph 83% 0.04 in
08:54 50.7 °F 45.4 °F 30.06 in SSW 5.0 mph 11.0 mph 82% 0.04 in
08:59 50.6 °F 45.3 °F 30.06 in SSW 7.0 mph 12.0 mph 82% 0.04 in
09:04 50.8 °F 45.5 °F 30.05 in South 2.0 mph 12.0 mph 82% 0.04 in
09:09 50.9 °F 45.6 °F 30.05 in SSW 5.0 mph 11.0 mph 82% 0.04 in
09:14 51.1 °F 45.8 °F 30.05 in South 4.0 mph 11.0 mph 82% 0.04 in
09:19 51.3 °F 46.0 °F 30.05 in SSW 3.0 mph 9.0 mph 82% 0.04 in
09:24 51.4 °F 45.8 °F 30.05 in South 4.0 mph 12.0 mph 81% 0.04 in
09:29 51.7 °F 46.4 °F 30.05 in South 3.0 mph 12.0 mph 82% 0.04 in
09:34 52.1 °F 46.8 °F 30.05 in SSW 5.0 mph 13.0 mph 82% 0.04 in
09:39 52.2 °F 46.6 °F 30.06 in SSW 5.0 mph 13.0 mph 81% 0.04 in
09:49 52.3 °F 46.3 °F 30.06 in SSW 7.0 mph 11.0 mph 80% 0.04 in
09:54 52.3 °F 46.6 °F 30.06 in SSW 5.0 mph 12.0 mph 81% 0.04 in
09:59 52.6 °F 46.9 °F 30.07 in SSW 4.0 mph 12.0 mph 81% 0.04 in
10:04 52.8 °F 46.8 °F 30.06 in SSW 8.0 mph 14.0 mph 80% 0.04 in
10:09 52.7 °F 46.7 °F 30.06 in SSW 6.0 mph 14.0 mph 80% 0.04 in
10:14 53.1 °F 47.4 °F 30.06 in SSW 3.0 mph 13.0 mph 81% 0.04 in
10:19 53.8 °F 47.8 °F 30.06 in SSW 5.0 mph 13.0 mph 80% 0.04 in
10:24 54.1 °F 47.7 °F 30.06 in SSW 4.0 mph 13.0 mph 79% 0.04 in
10:29 54.2 °F 47.5 °F 30.06 in SSW 5.0 mph 15.0 mph 78% 0.04 in
10:34 55.2 °F 48.8 °F 30.07 in SSW 4.0 mph 15.0 mph 79% 0.04 in
10:44 55.6 °F 48.5 °F 30.06 in South 6.0 mph 14.0 mph 77% 0.04 in
10:49 55.6 °F 48.5 °F 30.06 in SSW 7.0 mph 14.0 mph 77% 0.04 in
10:54 55.5 °F 48.4 °F 30.06 in SSW 6.0 mph 17.0 mph 77% 0.04 in
10:59 56.1 °F 49.0 °F 30.06 in SW 6.0 mph 17.0 mph 77% 0.04 in
11:04 56.0 °F 48.5 °F 30.07 in SW 7.0 mph 15.0 mph 76% 0.04 in
11:09 55.9 °F 48.5 °F 30.07 in SSW 7.0 mph 15.0 mph 76% 0.04 in
11:14 55.7 °F 48.6 °F 30.07 in SSW 4.0 mph 15.0 mph 77% 0.04 in
11:19 55.6 °F 48.2 °F 30.07 in SW 8.0 mph 14.0 mph 76% 0.04 in
11:29 56.0 °F 48.5 °F 30.06 in SSW 9.0 mph 18.0 mph 76% 0.04 in
11:34 56.4 °F 48.9 °F 30.07 in SSW 5.0 mph 17.0 mph 76% 0.04 in
11:39 56.3 °F 48.8 °F 30.07 in SSW 5.0 mph 17.0 mph 76% 0.04 in
11:44 57.3 °F 50.2 °F 30.06 in SSW 5.0 mph 17.0 mph 77% 0.04 in
11:49 57.0 °F 49.2 °F 30.06 in SSW 8.0 mph 17.0 mph 75% 0.04 in
11:54 57.0 °F 48.8 °F 30.06 in SSW 6.0 mph 18.0 mph 74% 0.04 in
11:59 57.5 °F 50.4 °F 30.06 in SSW 3.0 mph 18.0 mph 77% 0.04 in
12:04 57.8 °F 49.2 °F 30.05 in SW 5.0 mph 13.0 mph 73% 0.04 in
12:09 57.6 °F 49.7 °F 30.05 in SW 6.0 mph 13.0 mph 75% 0.04 in
12:14 57.9 °F 49.7 °F 30.05 in SSW 7.0 mph 13.0 mph 74% 0.04 in
12:19 59.0 °F 50.4 °F 30.05 in SSW 7.0 mph 13.0 mph 73% 0.04 in
12:24 59.0 °F 50.7 °F 30.05 in SSW 4.0 mph 13.0 mph 74% 0.04 in
12:34 60.0 °F 50.6 °F 30.04 in South 7.0 mph 12.0 mph 71% 0.04 in
12:39 60.6 °F 50.8 °F 30.04 in South 7.0 mph 14.0 mph 70% 0.04 in
12:49 60.2 °F 50.0 °F 30.05 in SW 5.0 mph 11.0 mph 69% 0.04 in
12:54 59.3 °F 49.5 °F 30.05 in WSW 6.0 mph 12.0 mph 70% 0.04 in
12:59 59.5 °F 50.5 °F 30.04 in SW 4.0 mph 12.0 mph 72% 0.04 in
13:04 60.5 °F 51.1 °F 30.04 in SSW 2.0 mph 11.0 mph 71% 0.04 in
13:09 60.3 °F 49.7 °F 30.04 in SSW 6.0 mph 13.0 mph 68% 0.04 in
13:14 60.4 °F 50.2 °F 30.04 in SW 6.0 mph 13.0 mph 69% 0.04 in
13:19 60.9 °F 51.1 °F 30.04 in South 2.0 mph 10.0 mph 70% 0.04 in
13:24 61.2 °F 51.3 °F 30.04 in SSE 2.0 mph 10.0 mph 70% 0.04 in
13:29 61.6 °F 50.5 °F 30.03 in SSW 4.0 mph 8.0 mph 67% 0.04 in
13:35 61.4 °F 51.1 °F 30.03 in SW 5.0 mph 10.0 mph 69% 0.04 in
13:44 61.0 °F 50.4 °F 30.04 in SSW 3.0 mph 12.0 mph 68% 0.04 in
13:49 61.2 °F 51.7 °F 30.04 in Calm   11.0 mph 71% 0.04 in
13:54 61.1 °F 50.5 °F 30.03 in SSW 1.0 mph 9.0 mph 68% 0.04 in
13:59 61.7 °F 51.0 °F 30.03 in WSW 4.0 mph 8.0 mph 68% 0.04 in
14:04 61.8 °F 51.5 °F 30.04 in WSW 2.0 mph 8.0 mph 69% 0.04 in
14:09 62.1 °F 51.4 °F 30.03 in SW 3.0 mph 10.0 mph 68% 0.04 in
14:14 61.7 °F 50.6 °F 30.04 in SSW 5.0 mph 10.0 mph 67% 0.04 in
14:19 61.2 °F 51.0 °F 30.04 in SW 3.0 mph 9.0 mph 69% 0.04 in
14:24 61.1 °F 50.5 °F 30.04 in SSW 4.0 mph 9.0 mph 68% 0.04 in
14:29 60.5 °F 50.3 °F 30.04 in SW 2.0 mph 9.0 mph 69% 0.04 in
14:34 60.8 °F 50.6 °F 30.03 in SSW 7.0 mph 10.0 mph 69% 0.04 in
14:39 61.1 °F 51.6 °F 30.03 in SSW 1.0 mph 10.0 mph 71% 0.04 in
14:44 61.8 °F 51.1 °F 30.03 in SSW 2.0 mph 9.0 mph 68% 0.04 in
14:49 62.2 °F 51.5 °F 30.03 in SW 2.0 mph 9.0 mph 68% 0.04 in
14:54 61.9 °F 51.2 °F 30.03 in Calm   9.0 mph 68% 0.04 in
14:59 61.8 °F 51.1 °F 30.03 in SSW 1.0 mph 9.0 mph 68% 0.04 in
15:04 61.6 °F 50.9 °F 30.02 in Calm   6.0 mph 68% 0.04 in
15:09 61.8 °F 51.9 °F 30.02 in Calm   7.0 mph 70% 0.04 in
15:14 62.4 °F 52.1 °F 30.02 in SW 4.0 mph 8.0 mph 69% 0.04 in
15:19 63.0 °F 52.3 °F 30.02 in WSW 5.0 mph 10.0 mph 68% 0.04 in
15:24 63.8 °F 52.2 °F 30.02 in SSW 1.0 mph 10.0 mph 66% 0.04 in
15:29 63.2 °F 51.7 °F 30.01 in WSW 4.0 mph 9.0 mph 66% 0.04 in
15:39 62.2 °F 51.1 °F 30.02 in SW 5.0 mph 9.0 mph 67% 0.04 in
15:44 62.2 °F 51.9 °F 30.02 in SW 2.0 mph 9.0 mph 69% 0.04 in
15:49 62.1 °F 51.4 °F 30.02 in SW 2.0 mph 7.0 mph 68% 0.04 in
15:54 61.6 °F 51.3 °F 30.02 in SW 2.0 mph 7.0 mph 69% 0.04 in
15:59 61.1 °F 51.3 °F 30.02 in SW 2.0 mph 8.0 mph 70% 0.04 in
16:04 60.9 °F 51.1 °F 30.02 in WSW 3.0 mph 9.0 mph 70% 0.04 in
16:09 60.8 °F 51.3 °F 30.01 in Calm   9.0 mph 71% 0.04 in
16:14 60.5 °F 50.7 °F 30.01 in SSW 2.0 mph 8.0 mph 70% 0.04 in
16:19 60.1 °F 50.7 °F 30.01 in SW 2.0 mph 8.0 mph 71% 0.04 in
16:24 59.9 °F 50.9 °F 30.01 in SW 4.0 mph 8.0 mph 72% 0.04 in
16:29 59.7 °F 51.0 °F 30.01 in Calm   10.0 mph 73% 0.04 in
16:34 59.5 °F 50.8 °F 30.01 in SSW 1.0 mph 10.0 mph 73% 0.04 in
16:39 59.3 °F 51.0 °F 30.00 in SSW 1.0 mph 7.0 mph 74% 0.04 in
16:44 59.0 °F 50.7 °F 30.00 in SW 4.0 mph 8.0 mph 74% 0.04 in
16:49 59.0 °F 50.7 °F 30.00 in SW 6.0 mph 8.0 mph 74% 0.04 in
16:54 58.6 °F 50.7 °F 30.00 in SW 3.0 mph 9.0 mph 75% 0.04 in
16:59 58.4 °F 50.5 °F 29.98 in SSW 4.0 mph 9.0 mph 75% 0.04 in
17:04 58.4 °F 50.5 °F 29.98 in SSW 2.0 mph 8.0 mph 75% 0.04 in
17:09 58.7 °F 50.8 °F 29.98 in SSW 5.0 mph 7.0 mph 75% 0.04 in
17:14 59.0 °F 51.1 °F 29.98 in SW 5.0 mph 8.0 mph 75% 0.04 in
17:19 59.0 °F 51.1 °F 29.97 in SSW 2.0 mph 8.0 mph 75% 0.04 in
17:24 59.0 °F 51.1 °F 29.97 in SSW 4.0 mph 8.0 mph 75% 0.04 in
17:29 59.2 °F 51.3 °F 29.97 in SSW 2.0 mph 8.0 mph 75% 0.04 in
17:34 59.3 °F 51.4 °F 29.96 in SSW 1.0 mph 7.0 mph 75% 0.04 in
17:39 59.5 °F 51.2 °F 29.96 in SW 2.0 mph 7.0 mph 74% 0.04 in
17:44 59.6 °F 51.3 °F 29.96 in Calm   7.0 mph 74% 0.04 in
17:49 59.6 °F 51.3 °F 29.96 in SSW 1.0 mph 6.0 mph 74% 0.04 in
17:54 59.6 °F 51.3 °F 29.96 in Calm   6.0 mph 74% 0.04 in
17:59 59.6 °F 51.3 °F 29.97 in SW 3.0 mph 7.0 mph 74% 0.04 in
18:04 59.3 °F 51.0 °F 29.97 in SSW 1.0 mph 7.0 mph 74% 0.04 in
18:09 59.1 °F 51.2 °F 29.98 in Calm   7.0 mph 75% 0.04 in
18:14 59.0 °F 50.7 °F 29.98 in SW 1.0 mph 6.0 mph 74% 0.04 in
18:19 59.0 °F 50.7 °F 29.98 in SSW 4.0 mph 9.0 mph 74% 0.04 in
18:24 59.0 °F 50.7 °F 29.99 in SSW 4.0 mph 9.0 mph 74% 0.04 in
18:29 59.0 °F 50.7 °F 30.00 in SSW 2.0 mph 9.0 mph 74% 0.04 in
18:34 59.0 °F 51.1 °F 30.00 in WSW 3.0 mph 9.0 mph 75% 0.04 in
18:39 59.0 °F 51.1 °F 30.00 in West 1.0 mph 6.0 mph 75% 0.04 in
18:44 58.8 °F 50.5 °F 30.00 in WSW 4.0 mph 7.0 mph 74% 0.04 in
18:49 58.6 °F 50.3 °F 29.99 in SW 3.0 mph 8.0 mph 74% 0.04 in
18:59 58.4 °F 50.5 °F 30.00 in SW 3.0 mph 7.0 mph 75% 0.04 in
19:04 58.3 °F 50.4 °F 30.00 in SW 2.0 mph 7.0 mph 75% 0.04 in
19:09 58.2 °F 50.7 °F 30.00 in SSW 4.0 mph 7.0 mph 76% 0.04 in
19:14 58.0 °F 50.8 °F 30.00 in SSW 5.0 mph 8.0 mph 77% 0.04 in
19:19 57.8 °F 50.6 °F 30.00 in SW 1.0 mph 8.0 mph 77% 0.04 in
19:24 57.7 °F 50.9 °F 30.00 in SW 1.0 mph 6.0 mph 78% 0.04 in
19:29 57.5 °F 51.0 °F 30.00 in SSW 1.0 mph 6.0 mph 79% 0.04 in
19:34 57.3 °F 50.8 °F 30.00 in SSW 1.0 mph 12.0 mph 79% 0.04 in
19:39 57.2 °F 51.1 °F 30.00 in SW 1.0 mph 12.0 mph 80% 0.04 in
19:49 56.8 °F 50.7 °F 30.00 in SSW 3.0 mph 12.0 mph 80% 0.04 in
19:54 56.7 °F 50.9 °F 30.00 in SSW 2.0 mph 11.0 mph 81% 0.04 in
19:59 56.6 °F 50.8 °F 30.00 in Calm   6.0 mph 81% 0.04 in
20:04 56.5 °F 50.7 °F 30.00 in SSW 2.0 mph 7.0 mph 81% 0.04 in
20:09 56.5 °F 50.7 °F 30.00 in Calm   7.0 mph 81% 0.04 in
20:14 56.4 °F 50.6 °F 29.99 in South 1.0 mph 5.0 mph 81% 0.04 in
20:19 56.4 °F 50.6 °F 29.99 in Calm   8.0 mph 81% 0.04 in
20:24 56.3 °F 50.5 °F 29.98 in Calm   8.0 mph 81% 0.04 in
20:29 56.3 °F 50.5 °F 29.98 in South 2.0 mph 7.0 mph 81% 0.04 in
20:34 56.3 °F 50.5 °F 29.98 in Calm   7.0 mph 81% 0.04 in
20:39 56.2 °F 50.5 °F 29.98 in South 1.0 mph 7.0 mph 81% 0.04 in
20:44 56.2 °F 50.5 °F 29.97 in SSW 1.0 mph 8.0 mph 81% 0.04 in
20:49 56.2 °F 50.5 °F 29.97 in Calm   8.0 mph 81% 0.04 in
20:54 56.0 °F 50.3 °F 29.97 in Calm   8.0 mph 81% 0.04 in
21:04 55.9 °F 50.2 °F 29.97 in SSW 1.0 mph 6.0 mph 81% 0.04 in
21:09 55.9 °F 50.2 °F 29.97 in SSW 4.0 mph 8.0 mph 81% 0.04 in
21:14 55.8 °F 50.1 °F 29.97 in SSW 2.0 mph 8.0 mph 81% 0.04 in
21:19 55.8 °F 50.1 °F 29.97 in South 2.0 mph 7.0 mph 81% 0.04 in
21:29 55.8 °F 50.1 °F 29.96 in Calm   8.0 mph 81% 0.04 in
21:34 55.7 °F 50.0 °F 29.98 in SSW 3.0 mph 8.0 mph 81% 0.04 in
21:39 55.6 °F 49.9 °F 29.98 in SSW 3.0 mph 7.0 mph 81% 0.04 in
21:44 55.5 °F 49.8 °F 29.98 in SSW 1.0 mph 7.0 mph 81% 0.04 in
21:49 55.4 °F 49.7 °F 29.98 in Calm   7.0 mph 81% 0.04 in
21:54 55.4 °F 50.0 °F 29.98 in SSW 1.0 mph 7.0 mph 82% 0.04 in
21:59 55.3 °F 49.9 °F 29.98 in Calm   6.0 mph 82% 0.04 in
22:04 55.1 °F 49.7 °F 29.98 in SSW 2.0 mph 8.0 mph 82% 0.04 in
22:09 55.0 °F 49.6 °F 29.97 in SSW 6.0 mph 9.0 mph 82% 0.04 in
22:14 55.1 °F 49.7 °F 29.97 in SSW 4.0 mph 9.0 mph 82% 0.04 in
22:19 55.2 °F 49.5 °F 29.96 in South 3.0 mph 11.0 mph 81% 0.04 in
22:24 55.2 °F 49.5 °F 29.96 in South 4.0 mph 11.0 mph 81% 0.04 in
22:29 55.1 °F 49.4 °F 29.96 in SSW 3.0 mph 10.0 mph 81% 0.04 in
22:34 55.1 °F 49.4 °F 29.97 in SSW 4.0 mph 10.0 mph 81% 0.04 in
22:44 54.5 °F 49.1 °F 29.97 in SSW 2.0 mph 7.0 mph 82% 0.04 in
22:49 54.3 °F 49.3 °F 29.96 in SSW 2.0 mph 7.0 mph 83% 0.04 in
22:54 54.2 °F 49.5 °F 29.95 in SSW 3.0 mph 10.0 mph 84% 0.04 in
22:59 54.2 °F 49.5 °F 29.94 in South 3.0 mph 10.0 mph 84% 0.04 in
23:04 54.4 °F 49.7 °F 29.93 in South 6.0 mph 10.0 mph 84% 0.04 in
23:09 54.7 °F 50.0 °F 29.93 in South 2.0 mph 11.0 mph 84% 0.04 in
23:14 54.7 °F 50.0 °F 29.92 in South 6.0 mph 11.0 mph 84% 0.04 in
23:19 54.8 °F 50.4 °F 29.92 in South 6.0 mph 11.0 mph 85% 0.04 in
23:24 54.9 °F 50.5 °F 29.92 in South 5.0 mph 13.0 mph 85% 0.04 in
23:29 54.9 °F 50.2 °F 29.92 in South 3.0 mph 13.0 mph 84% 0.04 in
23:34 55.0 °F 50.6 °F 29.92 in South 5.0 mph 9.0 mph 85% 0.04 in
23:44 55.3 °F 50.6 °F 29.92 in South 2.0 mph 10.0 mph 84% 0.04 in
23:49 55.4 °F 50.7 °F 29.92 in SSW 4.0 mph 8.0 mph 84% 0.04 in
23:54 55.5 °F 50.7 °F 29.93 in SSW 4.0 mph 8.0 mph 84% 0.04 in
23:59 55.5 °F 50.7 °F 29.94 in SSW 1.0 mph 8.0 mph 84% 0.04 in
Westford Weather
Compliments of Weather Underground

 
 
Current Radar Loop:

Copyright © WestfordWeather.net 2007-2014. All rights reserved.